Regional Weather Roundup
Issued by NWS

Home | Current Version | Previous Version | Graphics & Text | Print | Product List | Glossary On
Versions: 1 2 3 4 5 6 7 8 9 10 11 12 13 14 15 16 17 18 19 20 21 22 23 24 25 26 27 28 29 30 31 32 33 34 35 36 37 38 39 40 41 42 43 44 45 46 47 48 49 50
904
ASUS43 KLOT 280812
RWRIL

ILLINOIS REGIONAL WEATHER ROUNDUP
NATIONAL WEATHER SERVICE CHICAGO/ROMEOVILLE IL
300 AM CDT WED SEP 28 2016

NOTE: "FAIR" INDICATES FEW OR NO CLOUDS BELOW 12,000 FEET WITH NO
SIGNIFICANT WEATHER AND/OR OBSTRUCTIONS TO VISIBILITY.

* THESE STATIONS ARE NOT UNDER NWS QUALITY CONTROL. THEY ALSO MAY NOT
  REPORT WEATHER SUCH AS PRECIPITATION OR FOG.

ILZ001-002-007-009-015-016-024-280900-
NORTHWEST ILLINOIS

CITY           SKY/WX    TMP DP  RH WIND       PRES   REMARKS
MOLINE         CLOUDY    56  47  71 VRB3      29.81R
STERLING*      CLOUDY    53  46  77 NW10      29.81S
SAVANNA*       CLOUDY    50  45  82 NW10      29.82S
$$

ILZ003-004-008-010-011-017-018-280900-
NORTH CENTRAL ILLINOIS

CITY           SKY/WX    TMP DP  RH WIND       PRES   REMARKS
ROCKFORD       LGT RAIN  50  46  86 NW7       29.82S
FREEPORT*      DRIZZLE   47  46  93 NW3       29.83S
ROCHELLE*      CLOUDY    51  47  86 N5        29.80S
DE KALB*       CLOUDY    50  47  88 N3        29.79S
$$

ILZ005-006-012>014-019>023-280900-
NORTHEAST ILLINOIS

CITY           SKY/WX    TMP DP  RH WIND       PRES   REMARKS
CHICAGO-OHARE  CLOUDY    54  44  69 N6        29.78R
CHICAGO-MIDWAY CLOUDY    56  44  64 NE7       29.76F
AURORA         CLOUDY    53  46  77 CALM      29.77F
LANSING*       CLOUDY    57  52  85 N6        29.76R
JOLIET*        CLOUDY    56  48  74 NW7       29.80R
WAUKEGAN       LGT RAIN  51  48  89 CALM      29.78S
DUPAGE AIRPORT CLOUDY    52  45  77 E3        29.77F
KANKAKEE*      LGT RAIN  55  48  77 NE7       29.75F
WHEELING       CLOUDY    53  46  77 N3        29.79S
MORRIS*        CLOUDY    54  47  77 CALM      29.77R
ROMEOVILLE*    CLOUDY    54  49  83 N9        29.80R
NORTHERLY ISL    N/A     55  46  71 NE8         N/A
$$

LMZ740>746-280900-
SOUTHERN LAKE MICHIGAN

STATION/POSITION SKY/WX   TEMP    WIND        PRES    VSBY  WAVE
                          AIR SEA DIR/SP/G                  HT/PER
                          (F)     (DEG/KT/KT) (MB)    (MI)  (FT/S)
SOUTHERN BUOY              56 69  290/ 10/ 14 1008.0F         2/ 4
WILMETTE HARBOR            55 60   20/ 12/ 14   N/A           1/ 2
HARRISON CRIB              57      40/ 13/ 14   N/A
BURNHAM HARBOR             56      20/  6/ 12   N/A
CALUMET HARBOR             57     350/ 10/ 15 1007.8R
BURNS HARBOR               56      60/  8/ 14 1008.5
MICHIGAN CITY              55      50/ 10/ 11   N/A
MICHIGAN CITY 6N           58 67   70/ 14/ 19   N/A           2/ 4
ST. JOSEPH                 58 66   30/ 14/ 19 1008.6          2/ 5
$$

ILZ025>027-034>036-040-047-049-050-058-095>099-280900-
WEST-CENTRAL ILLINOIS

CITY           SKY/WX    TMP DP  RH WIND       PRES   REMARKS
QUINCY         MOCLDY    58  50  75 W6        29.79S
GALESBURG*     MOCLDY    53  47  79 N12       29.79R
MACOMB*        CLOUDY    58  46  64 NW7       29.80S
JACKSONVILLE*  CLOUDY    60  51  73 W5        29.77S
PITTSFIELD*    PTCLDY    60  53  75 W3        29.80S
$$

ILZ028>032-037-038-041>044-048-051>054-059>061-280900-
CENTRAL ILLINOIS

CITY           SKY/WX    TMP DP  RH WIND       PRES   REMARKS
PONTIAC        CLOUDY    55  50  84 NE8       29.75F
BLOOMINGTON    MOCLDY    59  46  62 NW6       29.75F
DECATUR        CLOUDY    61  51  70 SW8       29.75F
PEORIA         CLOUDY    58  45  62 N3        29.76S
LACON*         CLOUDY    54  46  75 N9        29.78R
LINCOLN*       CLOUDY    61  50  66 CALM      29.74F
SPRINGFIELD    CLOUDY    59  51  75 W6        29.76F
TAYLORVILLE    CLOUDY    59  53  79 SW6       29.76F
$$

ILZ033-039-045-046-055>057-062-063-280900-
EAST-CENTRAL ILLINOIS

CITY           SKY/WX    TMP DP  RH WIND       PRES   REMARKS
CHAMPAIGN      CLOUDY    58  50  75 S7        29.74F
RANTOUL*       CLOUDY    60  49  68 SW3       29.74F
MATTOON        PTCLDY    60  52  74 SW7       29.76F
PARIS*         CLOUDY    60  53  78 CALM      29.77F
$$

ILZ079-100>102-280900-
SOUTHWEST ILLINOIS

CITY           SKY/WX    TMP DP  RH WIND       PRES   REMARKS
BELLEVILLE     CLEAR     60  54  79 SW7       29.79F
CAHOKIA*       CLEAR     65  52  62 SW6       29.80F
SPARTA*        MOCLDY    62  52  68 SW6       29.84F
$$

ILZ064>066-069>071-074>076-080>082-084>086-088>090-092>094-280900-
SOUTH-CENTRAL ILLINOIS

CITY           SKY/WX    TMP DP  RH WIND       PRES   REMARKS
CARBONDALE     CLEAR     59  54  83 SW7       29.84F
CAIRO*         CLEAR     62  51  67 SW5       29.88F
EFFINGHAM*     CLOUDY    59  56  87 SW5       29.80F
MARION         CLEAR     64  54  68 SW3       29.85F
MT. VERNON     CLEAR     57  48  72 CALM      29.82F
CENTRALIA*     CLEAR     59  54  84 SW6       29.80F
SALEM*         CLEAR     60  53  77 SW5       29.81S
METROPOLIS*    CLEAR     59  51  74 CALM      29.88F
$$

ILZ067-068-072-073-078-083-087-091-280900-
SOUTHEAST ILLINOIS

CITY           SKY/WX    TMP DP  RH WIND       PRES   REMARKS
LAWRENCEVILLE  MOCLDY    59  52  77 S5        29.80F
FLORA*         PTCLDY    59  54  82 SW7       29.80F
FAIRFIELD*     CLEAR     59  54  82 SW5       29.80F
HARRISBURG*    CLEAR     59  53  80 SW3       29.85F
ROBINSON*      CLOUDY    61  53  73 SW8       29.79F
CARMI*         CLEAR     60  53  77 SW10      29.82F
$$

ABBREVIATIONS USED IN REMARKS
   TC - TEMPERATURE IN CELSIUS
  WCI - WIND CHILL INDEX
   HX - HEAT INDEX
  VSB - VISIBILITY
$$





USA.gov is the U.S. government's official web portal to all federal, state and local government web resources and services.